Location: ????????
(55.4000°N, 39.1167°E)
Time: 02:08:20
(UTC+00:00)

CZ-2C R/B - Pass Details

Date: 19 May 2025
Orbit: 782 x 867 km, 98.4° (Epoch: 14 June)

Event Time Altitude Azimuth Distance (km) Brightness Sun altitude
Exits shadow 20:55:03 - 121° (ESE) 2,734 5.0 -14.4°
Reaches altitude 10° 20:56:08 10° 116° (ESE) 2,350 4.7 -14.5°
Maximum altitude 21:00:32 29° 57° (ENE) 1,411 4.2 -14.5°
Drops below altitude 10° 21:04:56 10° 359° (N) 2,354 6.5 -14.6°
Sets 21:07:30 0° 349° (NNW) 3,290 7.6 -14.6°
